Location: Dana
(41.8364°N, 106.7042°W)
Time: 02:35:39
(UTC+00:00)

Altair - Pass Details

Date: 17 May 2026
Orbit: 1501 x 1682 km, 47.2° (Epoch: 6 June)

Event Time Altitude Azimuth Distance (km) Brightness Sun altitude
Rises 13:58:17 0° 271° (W) 4,865 9.5 22.9°
Reaches altitude 10° 14:01:27 10° 274° (W) 3,898 9.1 23.5°
Maximum altitude 14:11:27 65° 356° (N) 1,813 8.3 25.3°
Drops below altitude 10° 14:21:34 10° 78° (ENE) 3,943 11.3 27.2°
Sets 14:24:48 0° 81° (E) 4,924 11.4 27.8°
